Wind_Speed
46 46 45 45 45 45 45 45 45 45 45 45 45 45 47 47 47 48 48 49 49 49 49 49 49 50 49 49 49 49 49 48 49 48 47 47 48 48
44 44 44 43 42 42 43 44 44 44 43 43 44 44 45 46 47 47 47 49 49 49 48 48 48 48 48 48 48 48 48 49 48 47 47 47 47 47
42 42 42 41 40 40 40 41 42 43 43 43 43 42 43 45 45 45 45 47 47 48 48 48 47 47 47 47 47 48 47 47 47 47 47 46 46 46
40 41 40 39 39 40 40 40 41 41 42 41 41 41 42 43 43 43 43 44 45 46 47 47 47 47 46 47 46 45 45 45 46 46 46 46 46 45
39 39 38 38 38 38 38 39 39 39 40 40 40 41 40 40 41 41 41 42 43 43 45 46 46 46 46 46 45 45 44 45 45 46 45 45 45 45
37 37 37 37 37 37 37 37 37 37 38 39 40 41 40 39 40 40 41 42 42 42 42 43 44 44 44 44 44 44 44 45 45 45 45 45 45 44
36 35 35 36 36 37 37 36 36 36 37 38 39 39 39 39 40 40 40 40 40 40 41 41 42 43 43 43 43 43 43 44 44 44 44 44 44 44
33 33 34 34 34 35 35 35 35 35 35 36 35 36 37 37 38 38 38 38 39 39 39 40 40 40 40 42 42 43 43 43 43 43 43 43 43 43
30 31 31 32 32 32 33 33 33 33 33 33 33 33 34 34 35 36 36 37 37 37 39 39 39 39 40 41 42 42 42 42 42 42 42 42 42 42
29 28 28 28 29 30 31 31 31 31 31 30 31 32 32 33 33 34 35 36 37 37 37 37 38 39 40 40 40 40 40 41 41 41 41 41 41 41
28 27 27 27 27 27 28 28 28 29 29 29 30 30 30 31 32 32 33 33 34 35 36 37 37 38 38 39 39 39 39 39 39 40 40 40 40 41
27 26 26 26 26 26 26 26 26 26 27 28 29 29 30 30 29 30 31 31 32 33 34 35 36 36 36 37 38 38 38 38 38 38 39 39 38 39
26 25 25 25 25 25 25 25 25 25 26 27 27 27 27 28 28 29 29 30 31 31 31 32 34 34 35 35 35 36 35 35 35 35 35 35 35 35
25 25 25 24 24 24 24 24 24 25 25 25 25 26 26 26 26 27 27 27 28 29 29 30 30 30 30 31 32 32 32 31 31 31 31 31 31 32
23 23 24 24 24 24 24 24 24 24 24 24 24 24 24 24 25 25 25 25 25 25 26 26 26 26 26 27 28 28 28 28 28 28 27 27 28 29
23 23 23 23 23 24 24 23 23 23 23 23 23 23 23 23 22 22 22 21 22 23 23 24 24 24 24 24 24 24 24 24 24 25 25 26 26 27
22 23 23 22 22 22 22 22 22 23 22 22 22 22 22 21 21 21 21 21 21 21 21 22 22 22 23 22 22 21 22 22 22 22 23 24 24 25
20 20 21 21 21 21 21 21 21 21 21 21 21 21 20 19 19 19 19 20 20 20 20 20 21 21 22 21 20 20 20 20 21 21 21 21 21 21
19 19 19 20 20 20 21 21 21 20 20 19 19 18 18 18 18 18 18 17 17 18 18 18 18 19 18 18 18 18 17 18 18 18 19 19 19 19
20 20 20 20 20 19 19 19 19 19 19 19 18 18 18 17 17 17 16 16 16 16 16 16 16 15 15 14 15 15 15 15 15 15 16 16 16 17
20 20 20 20 19 18 18 17 17 17 17 17 17 17 17 17 16 16 15 15 14 14 14 13 13 12 12 11 11 10 11 12 13 13 14 14 14 14
20 20 19 19 18 17 17 17 16 16 16 15 15 15 16 16 16 15 14 14 13 12 12 12 11 11 10 9 9 8 9 10 11 12 13 13 13 12
18 18 18 18 17 17 16 16 16 15 14 14 14 14 14 15 15 15 14 13 12 12 11 11 10 10 9 8 8 8 8 9 10 10 11 11 11 11
Wind_Direction
271 271 271 270 268 268 266 265 264 262 261 261 262 263 263 263 264 263 262 262 262 262 262 262 261 260 260 261 262 263 263 265 265 266 267 268 269 269
271 270 269 268 267 266 266 265 264 263 262 262 263 263 263 263 264 264 264 263 263 262 262 262 261 260 261 262 262 263 263 264 265 265 266 268 269 269
270 269 268 267 266 265 265 265 265 264 264 264 264 263 263 263 264 265 265 265 264 263 262 262 260 260 261 263 263 263 263 264 265 265 265 266 268 269
270 269 267 265 265 265 265 265 266 265 266 265 264 264 265 265 265 265 265 264 264 263 262 261 260 259 261 262 262 263 263 264 265 265 265 266 267 267
271 269 267 266 266 266 266 266 266 266 266 266 267 267 267 266 266 265 265 264 263 262 261 259 258 259 260 261 262 263 264 264 265 266 266 266 266 267
271 269 267 266 265 266 266 265 266 266 266 267 268 267 267 267 267 267 265 264 262 260 259 258 257 258 259 261 263 263 264 265 266 267 266 266 267 267
271 270 268 266 266 266 265 265 267 267 268 268 267 267 267 269 268 267 266 264 263 261 259 257 257 258 259 261 263 264 265 266 266 266 266 266 266 267
272 271 269 268 267 266 265 265 266 268 268 269 268 268 270 271 270 269 268 266 264 261 258 257 257 258 261 263 264 265 265 266 267 267 266 266 267 269
274 273 272 269 267 266 264 264 266 268 269 270 270 270 270 269 270 270 268 268 266 263 261 260 260 262 263 263 265 266 266 266 267 267 267 267 268 269
275 274 273 270 268 266 265 265 266 267 268 270 271 269 268 269 269 270 269 268 268 265 265 264 265 265 265 266 267 267 267 267 267 268 268 268 268 269
275 274 273 271 269 267 266 266 266 267 268 270 271 269 269 270 269 270 270 270 269 267 267 266 267 267 266 266 266 266 266 266 267 268 269 269 268 268
273 272 272 271 270 269 268 268 269 270 270 270 272 272 272 270 269 270 270 270 269 268 267 267 267 267 267 266 266 266 266 266 267 268 269 269 268 267
272 271 272 271 269 268 268 269 270 271 272 273 274 273 272 270 270 270 270 271 270 268 268 268 268 267 267 267 266 266 265 266 267 267 269 269 268 268
272 270 269 269 267 267 268 269 271 272 272 274 274 273 272 271 273 273 272 272 270 268 268 268 268 268 268 267 267 266 266 266 267 266 267 269 269 270
271 269 268 268 266 266 267 269 272 273 273 274 275 275 272 271 273 274 273 273 272 270 269 269 269 270 270 269 267 266 266 266 266 266 266 268 269 269
270 269 268 267 266 266 267 269 272 274 275 276 275 275 273 272 274 274 273 273 272 271 271 271 270 271 272 271 268 265 264 263 265 265 265 267 269 270
270 269 267 266 266 266 268 269 271 273 274 274 274 274 273 272 273 274 273 272 271 270 270 272 273 271 271 271 269 267 267 265 266 267 268 268 269 269
270 268 267 267 266 267 270 271 272 273 273 273 271 272 273 272 272 274 274 272 270 269 268 273 274 274 273 273 271 269 268 268 267 267 268 270 270 269
271 269 267 267 267 268 270 271 271 272 271 270 269 269 270 270 270 271 271 271 272 272 271 273 276 276 274 272 271 269 267 267 266 266 267 268 270 271
270 267 266 267 268 269 270 270 271 270 269 268 266 265 266 267 270 270 270 271 273 274 273 273 273 274 274 272 269 268 266 266 265 266 269 271 272 272
267 266 265 266 268 268 268 269 270 271 270 268 265 262 262 265 269 268 267 270 273 274 274 274 271 270 272 271 267 264 265 267 269 271 273 271 269 271
265 264 263 263 265 265 266 266 268 269 269 265 262 261 261 261 263 264 266 267 268 271 273 273 271 269 269 266 262 266 273 276 277 277 277 279 277 279
264 262 261 260 261 261 262 264 266 266 265 262 262 259 258 258 258 260 263 263 262 265 266 266 266 266 263 262 267 272 275 279 281 281 281 281 284 286
Height
5602 5601 5601 5601 5601 5601 5602 5603 5606 5608 5611 5612 5614 5615 5617 5618 5619 5621 5623 5624 5626 5629 5631 5633 5635 5637 5640 5642 5645 5647 5648 5650 5652 5654 5654 5655 5655 5656
5589 5589 5589 5589 5589 5590 5591 5592 5594 5596 5598 5600 5602 5603 5604 5606 5607 5609 5610 5612 5613 5615 5618 5620 5622 5625 5627 5629 5631 5633 5635 5637 5639 5640 5641 5642 5642 5643
5577 5577 5577 5577 5578 5578 5579 5581 5582 5584 5586 5588 5590 5591 5592 5594 5595 5596 5597 5599 5601 5603 5604 5607 5609 5612 5614 5617 5618 5620 5622 5624 5626 5627 5628 5629 5629 5630
5565 5565 5565 5566 5567 5567 5568 5570 5571 5573 5574 5576 5578 5579 5580 5581 5583 5584 5585 5587 5588 5590 5592 5594 5597 5599 5602 5604 5606 5608 5609 5611 5613 5614 5615 5616 5617 5616
5554 5554 5554 5555 5556 5557 5558 5559 5560 5561 5563 5565 5567 5568 5569 5569 5571 5572 5573 5575 5576 5577 5579 5581 5584 5587 5589 5591 5593 5595 5597 5599 5600 5601 5602 5603 5603 5604
5543 5543 5543 5544 5545 5546 5547 5548 5549 5551 5552 5553 5555 5556 5557 5558 5559 5561 5561 5563 5564 5566 5568 5570 5572 5574 5577 5579 5581 5583 5584 5586 5587 5588 5589 5590 5591 5591
5532 5532 5533 5533 5534 5535 5537 5538 5539 5540 5541 5543 5544 5545 5546 5547 5548 5548 5549 5550 5552 5554 5556 5559 5561 5564 5565 5567 5568 5570 5571 5573 5574 5575 5576 5577 5578 5579
5523 5522 5522 5523 5524 5525 5526 5528 5529 5530 5531 5532 5533 5534 5535 5536 5536 5537 5538 5539 5542 5544 5545 5547 5550 5553 5554 5555 5556 5557 5559 5560 5562 5563 5564 5565 5565 5566
5513 5513 5513 5513 5514 5515 5517 5518 5519 5520 5522 5522 5523 5524 5525 5526 5526 5527 5527 5528 5530 5532 5534 5536 5539 5541 5543 5543 5544 5545 5546 5548 5549 5550 5551 5552 5553 5554
5505 5504 5504 5505 5505 5506 5508 5509 5510 5512 5513 5513 5514 5515 5516 5516 5516 5517 5517 5519 5520 5522 5523 5526 5528 5530 5531 5531 5532 5533 5535 5536 5537 5538 5539 5540 5541 5541
5498 5497 5497 5497 5498 5498 5500 5501 5503 5503 5504 5505 5506 5506 5506 5507 5507 5507 5509 5510 5511 5513 5514 5515 5517 5519 5520 5521 5521 5522 5523 5524 5526 5527 5528 5528 5529 5530
5491 5491 5491 5491 5491 5491 5493 5494 5495 5496 5496 5497 5497 5498 5498 5498 5499 5499 5500 5501 5501 5503 5504 5505 5506 5507 5509 5510 5511 5511 5512 5513 5514 5516 5517 5517 5518 5519
5484 5484 5484 5484 5484 5485 5486 5487 5488 5489 5489 5490 5490 5490 5490 5491 5491 5491 5492 5492 5493 5494 5495 5495 5496 5497 5498 5500 5501 5501 5502 5503 5504 5505 5505 5506 5507 5508
5476 5477 5477 5478 5478 5479 5479 5480 5481 5482 5482 5483 5483 5483 5484 5484 5484 5484 5484 5484 5484 5485 5486 5486 5487 5488 5489 5490 5491 5492 5492 5493 5494 5495 5496 5496 5497 5498
5470 5470 5470 5471 5472 5472 5473 5474 5475 5476 5476 5476 5477 5477 5477 5477 5477 5477 5477 5477 5477 5477 5478 5478 5479 5480 5480 5481 5482 5483 5484 5485 5485 5486 5487 5488 5488 5489
5463 5463 5464 5464 5465 5466 5467 5468 5469 5469 5470 5470 5470 5470 5470 5471 5471 5471 5471 5471 5471 5471 5472 5472 5472 5473 5474 5474 5475 5476 5476 5478 5479 5479 5480 5480 5481 5481
5456 5457 5458 5458 5459 5460 5461 5462 5463 5463 5463 5464 5464 5464 5465 5465 5465 5465 5465 5465 5466 5466 5466 5467 5466 5467 5467 5468 5468 5469 5470 5471 5472 5473 5473 5474 5474 5474
5450 5451 5452 5453 5454 5455 5455 5456 5456 5457 5457 5457 5458 5458 5459 5459 5460 5460 5460 5460 5460 5460 5461 5461 5461 5461 5461 5462 5462 5463 5464 5465 5465 5466 5466 5467 5467 5467
5445 5446 5446 5447 5448 5449 5449 5450 5450 5451 5451 5451 5452 5453 5453 5454 5454 5455 5455 5455 5455 5455 5456 5456 5456 5456 5456 5457 5457 5457 5458 5459 5460 5461 5461 5461 5461 5461
5440 5440 5441 5442 5442 5443 5443 5444 5444 5445 5445 5446 5446 5447 5448 5448 5449 5450 5450 5450 5450 5451 5451 5451 5451 5451 5452 5452 5453 5453 5454 5455 5455 5456 5456 5456 5456 5456
5434 5435 5435 5436 5437 5438 5438 5439 5439 5440 5440 5440 5441 5442 5443 5443 5444 5445 5445 5446 5446 5447 5447 5447 5447 5447 5448 5448 5449 5450 5450 5451 5451 5452 5452 5452 5452 5452
5428 5429 5430 5431 5432 5432 5433 5434 5435 5435 5436 5436 5437 5437 5438 5439 5440 5440 5441 5442 5443 5443 5443 5444 5444 5444 5445 5445 5446 5447 5447 5448 5448 5448 5448 5448 5448 5448
5423 5424 5425 5426 5427 5428 5428 5429 5430 5431 5431 5432 5432 5433 5434 5435 5436 5436 5437 5438 5439 5440 5440 5441 5441 5442 5442 5443 5444 5444 5445 5445 5445 5445 5445 5444 5444 5444